Weather Roundup
Issued by NWS Chicago, IL

Home | Current Version | Previous Version | Text Only | Print | Product List | Glossary On
Versions: 1 2 3 4 5 6 7 8 9 10 11 12 13 14 15 16 17 18 19 20 21 22 23 24 25 26 27 28 29 30 31 32 33 34 35 36 37 38 39 40 41 42 43 44 45 46 47 48 49 50
217
NZUS59 KLOT 051012
HRRLOT

CHICAGO AREA WEATHER ROUNDUP
NATIONAL WEATHER SERVICE CHICAGO/ROMEOVILLE IL
400 AM CST MON DEC 05 2016

NOTE: "FAIR" INDICATES FEW OR NO CLOUDS BELOW 12,000 FEET WITH NO
SIGNIFICANT WEATHER AND/OR OBSTRUCTIONS TO VISIBILITY.

* THESE STATIONS ARE NOT UNDER NWS QUALITY CONTROL. THEY ALSO MAY NOT
  REPORT WEATHER SUCH AS PRECIPITATION OR FOG.

ILZ005-006-012>014-019>023-051100-
NORTHEAST ILLINOIS

CITY           SKY/WX    TMP DP  RH WIND       PRES   REMARKS
OHARE          CLOUDY    33  30  88 W9        29.98S WCI  25
MIDWAY         CLOUDY    34  30  85 W12       30.00S WCI  25
AURORA         CLOUDY    34  31  88 W12       30.00R WCI  25
LANSING*       CLOUDY    33  32  96 W7        30.02R WCI  27
JOLIET*        CLOUDY    34  33  94 SW5       30.02S WCI  30
WAUKEGAN       CLOUDY    33  31  92 SW8       29.96R WCI  26
DUPAGE AIRPORT CLOUDY    33  29  85 W13       29.98S WCI  24
WHEELING       CLOUDY    33  30  88 W8        29.99R WCI  26
KANKAKEE*      CLOUDY    32  32  99 CALM      30.04S
MORRIS*        CLOUDY    33  31  92 W8        30.00F WCI  26
LEWIS AIRPORT* CLOUDY    33  33 100 W5        30.01S WCI  28
NORTHERLY ISL    N/A     34  30  86 W9          N/A  WCI  27
$$

WIZ051-052-058>065-066-070>072-051100-
SOUTHEAST WISCONSIN

CITY           SKY/WX    TMP DP  RH WIND       PRES   REMARKS
MILWAUKEE      DRIZZLE   35  30  82 W10       29.94R WCI  27
KENOSHA*       CLOUDY    33  30  88 W15       29.96R WCI  23
RACINE*        CLOUDY    33  30  88 SW8       29.97R WCI  26
BURLINGTON     CLOUDY    32  31  95 SW8       29.95R WCI  25
WAUKESHA       CLOUDY    32  30  93 W9        29.94R WCI  24
WEST BEND      CLOUDY    32  32 100 W9        29.91R WCI  24
$$

INZ001>003-010>013-019-020-051100-
NORTHWEST INDIANA

CITY           SKY/WX    TMP DP  RH WIND       PRES   REMARKS
GARY*          NOT AVBL
MICHIGAN CITY* NOT AVBL
RENSSELAER*    NOT AVBL
VALPARAISO     CLOUDY    33  30  88 MISG      30.02R
$$

LMZ740>746-051100-
SOUTHERN LAKE MICHIGAN

STATION/POSITION TIME  SKY/WX   TEMP WIND        PRES    VSBY
                                AIR  DIR/SP/G
                 (UTC)          (F)  (DEG/KT/KT) (MB)    (MI)
HARRISON CRIB    0940            35  260/ 18/ 20   N/A
BURNHAM HARBOR   1000            34  240/  8/ 15   N/A
CALUMET HARBOR   0948            33  240/  7/ 16 1015.6R
BURNS HARBOR     1002            35  230/ 10/ 21 1016.9
MICHIGAN CITY    NOT AVBL
$$

ABBREVIATIONS USED IN REMARKS
   TC - TEMPERATURE IN CELSIUS
  WCI - WIND CHILL INDEX
   HX - HEAT INDEX
  VSB - VISIBILITY
$$




USA.gov is the U.S. government's official web portal to all federal, state and local government web resources and services.